• In Belarus
  • List of Countries
  • For 7 days
  • Water Temperature
  • Satellite Maps
  • Weather Map
  • Weather Widgets
  • user-avatar
    Login

    Hourly Weather Samos

    Today, 15 December, Saturday

    Time Temperature Precipitation Wind Pressure Humidity
    00:00 +8°C° 0 mm 6 mps 723 mmHg 91%
    01:00 +8°C° 0 mm 6 mps 723 mmHg 91%
    02:00 +7°C° 0 mm 8 mps 723 mmHg 91%
    03:00 +8°C° 0.1 mm 7 mps 723 mmHg 91%
    04:00 +8°C° 0.1 mm 7 mps 723 mmHg 91%
    05:00 +8°C° 0.1 mm 7 mps 723 mmHg 91%
    06:00 +8°C° 0 mm 7 mps 723 mmHg 91%
    07:00 +8°C° 0 mm 7 mps 723 mmHg 90%
    08:00 +8°C° 0 mm 7 mps 723 mmHg 90%
    09:00 +9°C° 0.1 mm 7 mps 723 mmHg 83%
    10:00 +11°C° 0.1 mm 8 mps 723 mmHg 77%
    11:00 +12°C° 0.1 mm 8 mps 723 mmHg 70%
    12:00 +13°C° 0.2 mm 8 mps 723 mmHg 68%
    13:00 +13°C° 0.2 mm 8 mps 722 mmHg 65%
    14:00 +15°C° 0.2 mm 8 mps 722 mmHg 63%
    15:00 +13°C° 0.3 mm 8 mps 722 mmHg 68%
    16:00 +12°C° 0.3 mm 7 mps 722 mmHg 73%
    17:00 +11°C° 0.3 mm 7 mps 721 mmHg 77%
    18:00 +10°C° 1 mm 7 mps 721 mmHg 78%
    19:00 +10°C° 1 mm 7 mps 721 mmHg 79%
    20:00 +10°C° 1 mm 7 mps 721 mmHg 80%
    21:00 +9°C° 1.4 mm 7 mps 721 mmHg 82%
    22:00 +9°C° 1.4 mm 7 mps 721 mmHg 84%
    23:00 +9°C° 1.4 mm 8 mps 721 mmHg 86%

    Tomorrow, 16 December, Sunday

    Time Temperature Precipitation Wind Pressure Humidity
    00:00 +9°C° 1.3 mm 7 mps 721 mmHg 87%
    01:00 +9°C° 1.3 mm 7 mps 720 mmHg 88%
    02:00 +8°C° 1.3 mm 7 mps 720 mmHg 89%
    03:00 +8°C° 1.3 mm 7 mps 720 mmHg 89%
    04:00 +8°C° 1.3 mm 7 mps 719 mmHg 89%
    05:00 +8°C° 1.3 mm 7 mps 719 mmHg 89%
    06:00 +8°C° 1.5 mm 7 mps 719 mmHg 89%
    07:00 +8°C° 1.5 mm 7 mps 719 mmHg 89%
    08:00 +8°C° 1.5 mm 7 mps 719 mmHg 88%
    09:00 +8°C° 1.8 mm 7 mps 719 mmHg 85%
    10:00 +9°C° 1.8 mm 6 mps 719 mmHg 82%
    11:00 +10°C° 1.8 mm 6 mps 719 mmHg 79%
    12:00 +10°C° 1.1 mm 6 mps 719 mmHg 79%
    13:00 +10°C° 1.1 mm 6 mps 718 mmHg 79%
    14:00 +12°C° 1.1 mm 5 mps 718 mmHg 79%
    15:00 +10°C° 0.3 mm 5 mps 718 mmHg 81%
    16:00 +10°C° 0.3 mm 5 mps 718 mmHg 82%
    17:00 +9°C° 0.3 mm 5 mps 718 mmHg 84%
    18:00 +10°C° 0 mm 4 mps 718 mmHg 85%
    19:00 +8°C° 0 mm 4 mps 719 mmHg 86%
    20:00 +9°C° 0 mm 3 mps 719 mmHg 87%
    21:00 +9°C° 0.1 mm 3 mps 719 mmHg 87%
    22:00 +8°C° 0.1 mm 3 mps 720 mmHg 88%
    23:00 +8°C° 0.1 mm 3 mps 720 mmHg 88%

    Day after tomorrow, 17 December, Monday

    Time Temperature Precipitation Wind Pressure Humidity
    00:00 +8°C° 0 mm 3 mps 720 mmHg 88%
    01:00 +8°C° 0 mm 2 mps 720 mmHg 88%
    02:00 +8°C° 0 mm 2 mps 720 mmHg 88%
    03:00 +8°C° 0 mm 2 mps 720 mmHg 88%
    04:00 +7°C° 0 mm 2 mps 720 mmHg 88%
    05:00 +7°C° 0 mm 2 mps 720 mmHg 88%
    06:00 +7°C° 0 mm 2 mps 720 mmHg 87%
    07:00 +7°C° 0 mm 2 mps 720 mmHg 87%
    08:00 +7°C° 0 mm 2 mps 721 mmHg 86%
    09:00 +10°C° 0 mm 1 mps 721 mmHg 80%
    10:00 +12°C° 0 mm 1 mps 721 mmHg 74%
    11:00 +14°C° 0 mm 1 mps 721 mmHg 68%
    12:00 +14°C° 0 mm 1 mps 721 mmHg 68%
    13:00 +14°C° 0 mm 1 mps 721 mmHg 67%
    14:00 +14°C° 0 mm 1 mps 721 mmHg 66%
    15:00 +14°C° 0 mm 1 mps 721 mmHg 71%
    16:00 +13°C° 0 mm 1 mps 721 mmHg 77%
    17:00 +12°C° 0 mm 1 mps 721 mmHg 82%
    18:00 +11°C° 0 mm 1 mps 721 mmHg 83%
    19:00 +11°C° 0 mm 1 mps 721 mmHg 85%
    20:00 +11°C° 0 mm 1 mps 721 mmHg 86%
    21:00 +11°C° 0 mm 1 mps 721 mmHg 88%
    22:00 +10°C° 0 mm 1 mps 721 mmHg 89%
    23:00 +9°C° 0 mm 2 mps 721 mmHg 91%

    18 December, Tuesday

    Time Temperature Precipitation Wind Pressure Humidity
    00:00 +9°C° 0 mm 2 mps 721 mmHg 91%
    01:00 +9°C° 0 mm 3 mps 721 mmHg 92%
    02:00 +7°C° 0 mm 4 mps 721 mmHg 92%
    03:00 +7°C° 0.2 mm 4 mps 720 mmHg 92%
    04:00 +7°C° 0.2 mm 5 mps 719 mmHg 92%
    05:00 +7°C° 0.2 mm 5 mps 719 mmHg 92%
    06:00 +7°C° 4.1 mm 5 mps 718 mmHg 92%
    07:00 +7°C° 4.1 mm 5 mps 718 mmHg 93%
    08:00 +7°C° 4.1 mm 5 mps 718 mmHg 93%
    09:00 +7°C° 5 mm 5 mps 718 mmHg 94%
    10:00 +7°C° 5 mm 5 mps 717 mmHg 94%
    11:00 +7°C° 5 mm 6 mps 717 mmHg 95%
    12:00 +7°C° 0.9 mm 5 mps 717 mmHg 91%
    13:00 +8°C° 0.9 mm 5 mps 716 mmHg 87%
    14:00 +9°C° 0.9 mm 5 mps 716 mmHg 82%
    15:00 +8°C° 0.6 mm 5 mps 716 mmHg 84%
    16:00 +8°C° 0.6 mm 4 mps 716 mmHg 87%
    17:00 +7°C° 0.6 mm 4 mps 716 mmHg 89%
    18:00 +7°C° 0.8 mm 4 mps 716 mmHg 90%
    19:00 +7°C° 0.8 mm 4 mps 716 mmHg 90%
    20:00 +7°C° 0.8 mm 4 mps 716 mmHg 91%
    21:00 +7°C° 0.6 mm 4 mps 717 mmHg 91%
    22:00 +7°C° 0.6 mm 4 mps 717 mmHg 91%
    23:00 +7°C° 0.6 mm 4 mps 717 mmHg 91%

    19 December, Wednesday

    Time Temperature Precipitation Wind Pressure Humidity
    00:00 +7°C° 0.4 mm 4 mps 717 mmHg 91%
    01:00 +7°C° 0.4 mm 5 mps 717 mmHg 91%
    02:00 +7°C° 0.4 mm 5 mps 717 mmHg 92%
    03:00 +7°C° 0.2 mm 5 mps 717 mmHg 92%
    04:00 +7°C° 0.2 mm 6 mps 718 mmHg 93%
    05:00 +7°C° 0.2 mm 6 mps 718 mmHg 93%
    06:00 +5°C° 0.1 mm 6 mps 718 mmHg 92%
    07:00 +5°C° 0.1 mm 7 mps 719 mmHg 92%
    08:00 +5°C° 0.1 mm 7 mps 720 mmHg 91%
    09:00 +6°C° 0 mm 7 mps 720 mmHg 87%
    10:00 +6°C° 0 mm 7 mps 721 mmHg 82%
    11:00 +7°C° 0 mm 8 mps 721 mmHg 78%
    12:00 +8°C° 0 mm 7 mps 721 mmHg 76%
    13:00 +8°C° 0 mm 7 mps 721 mmHg 75%
    14:00 +8°C° 0 mm 7 mps 721 mmHg 73%
    15:00 +7°C° 0 mm 6 mps 721 mmHg 75%
    16:00 +5°C° 0 mm 6 mps 722 mmHg 77%
    17:00 +5°C° 0 mm 6 mps 722 mmHg 80%
    18:00 +5°C° 0 mm 5 mps 723 mmHg 81%
    19:00 +3°C° 0 mm 5 mps 723 mmHg 83%
    20:00 +3°C° 0 mm 5 mps 723 mmHg 84%
    21:00 +3°C° 0 mm 5 mps 724 mmHg 84%
    22:00 +2°C° 0 mm 5 mps 724 mmHg 85%
    23:00 +2°C° 0 mm 5 mps 724 mmHg 85%

    20 December, Thursday

    Time Temperature Precipitation Wind Pressure Humidity
    00:00 +2°C° 0 mm 5 mps 724 mmHg 85%
    01:00 +1°C° 0 mm 5 mps 724 mmHg 85%
    02:00 +1°C° 0 mm 5 mps 724 mmHg 86%
    03:00 +1°C° 0 mm 5 mps 725 mmHg 86%
    04:00 +1°C° 0 mm 5 mps 725 mmHg 87%
    05:00 0°C° 0 mm 5 mps 725 mmHg 87%
    06:00 0°C° 0 mm 5 mps 725 mmHg 87%
    07:00 0°C° 0 mm 5 mps 726 mmHg 87%
    08:00 0°C° 0 mm 5 mps 726 mmHg 87%
    09:00 +1°C° 0 mm 5 mps 726 mmHg 81%
    10:00 +4°C° 0 mm 4 mps 726 mmHg 75%
    11:00 +5°C° 0 mm 4 mps 727 mmHg 68%
    12:00 +6°C° 0 mm 4 mps 726 mmHg 65%
    13:00 +7°C° 0 mm 4 mps 726 mmHg 62%
    14:00 +7°C° 0 mm 4 mps 726 mmHg 59%
    15:00 +6°C° 0 mm 4 mps 726 mmHg 63%
    16:00 +6°C° 0 mm 4 mps 726 mmHg 67%
    17:00 +5°C° 0 mm 4 mps 726 mmHg 71%
    18:00 +4°C° 0 mm 4 mps 727 mmHg 73%
    19:00 +4°C° 0 mm 3 mps 727 mmHg 75%
    20:00 +3°C° 0 mm 3 mps 727 mmHg 77%
    21:00 +3°C° 0 mm 3 mps 727 mmHg 78%
    22:00 +3°C° 0 mm 3 mps 727 mmHg 79%
    23:00 +2°C° 0 mm 3 mps 727 mmHg 80%
    Show more